Location: Sternwarte Stuttgart
(48.7824°N, 9.1965°E)
Time: 11:53:29
(UTC+00:00)

Daily predictions for brighter satellites

Satellite Brightness Start Highest point End
(mag) Time Altitude Azimuth Time Altitude Azimuth Time Altitude Azimuth
Meteor 2-3 Rocket 3.8 19:22:39 10° S 19:28:24 73° E 19:34:13 10° NNE
Cosmos 2151 4.4 19:25:04 10° SSW 19:29:05 43° WNW 19:33:06 10° N
Cosmos 2341 Rocket 4.1 19:25:08 10° S 19:31:21 86° W 19:37:40 10° N
Meteor 2-12 Rocket 4.5 19:25:37 10° S 19:31:44 69° E 19:37:51 10° NNE
Cosmos 1515 Rocket 3.6 19:27:35 10° N 19:32:03 74° E 19:36:30 10° SSE
Cosmos 2366 rocket 4.1 19:27:51 10° S 19:34:01 63° E 19:40:10 10° NNE
SL-8 R/B 3.8 19:29:43 10° W 19:34:35 87° S 19:39:26 10° E
DMSP B5D2-2 4.2 19:36:19 10° NNE 19:41:34 85° WNW 19:46:48 10° SSW
USA 186 4.2 19:43:19 10° SW 19:44:35 13° W 19:45:50 10° WNW
ERBS 3.6 19:45:12 10° S 19:47:44 20° SE 19:50:16 10° E
SL-8 Rocket 4.1 19:43:25 10° S 19:49:35 83° W 19:55:51 10° N
BREEZE-M DEB (TANK) 3.1 19:46:21 10° WNW 19:52:30 41° SW 19:55:06 11° SSE
SPOT 5 4.1 19:51:57 10° ESE 19:55:19 22° ENE 19:58:41 10° NNE
USA 267 3.3 19:48:56 10° NE 19:55:32 87° SSE 20:02:08 10° WSW
SPOT 1/Viking Rocket 4.1 19:54:07 10° SE 19:59:00 45° ENE 20:03:58 10° N
ERS-1 Rocket 3.9 19:56:07 11° SE 20:00:20 33° ENE 20:04:48 10° N
Spot 2 Rocket 3.7 19:57:20 10° SSE 20:02:20 58° ENE 20:07:21 10° N
ISS -1.1 20:03:05 10° WSW 20:03:59 11° SW 20:04:52 10° SSW
BREEZE-M DEB (TANK) 1.8 20:02:06 10° W 20:05:41 87° S 20:07:38 10° E
Terra 3.3 20:02:13 11° ESE 20:05:43 23° ENE 20:09:28 10° N
Cosmos 1743 Rocket 3.6 20:03:09 10° S 20:07:35 88° W 20:12:04 10° N
Cosmos 2218 Rocket 4.3 20:03:42 10° SSW 20:09:52 71° W 20:16:03 10° N
Cosmos 1992 Rocket 4.1 20:05:21 10° NNW 20:10:37 77° WSW 20:15:46 10° SSE
Shenzhou-11 Module 3.9 20:13:26 10° SSW 20:13:35 10° S 20:13:35 10° S
CZ-2C R/B 3.9 20:11:14 10° N 20:16:07 43° WNW 20:20:59 10° SW
Cosmos 972 Rocket 3.9 20:11:33 10° NNW 20:16:46 86° WSW 20:21:12 13° SSE
Cosmos 1980 Rocket 3.6 20:12:41 10° NNW 20:17:34 28° NE 20:22:08 11° ESE
Cosmos 1633 4.0 20:15:55 10° SW 20:19:15 38° WNW 20:22:36 10° N
Cosmos 220 Rocket 4.4 20:15:28 10° NNW 20:19:33 46° ENE 20:22:23 18° SE
Intercosmos 25 3.7 20:20:11 10° N 20:25:53 84° E 20:28:54 16° SSE
Cosmos 389 Rocket 2.3 20:24:50 10° N 20:28:17 86° E 20:30:38 19° SSE
Cosmos 1500 Rocket 4.2 20:24:43 10° SSW 20:28:57 56° WNW 20:33:14 10° N
Cosmos 1862 3.3 20:25:41 10° S 20:29:43 85° ESE 20:33:48 10° N
Sich 1 3.2 20:26:20 13° S 20:30:13 57° E 20:34:35 10° NNE
Cosmos 2251 Rocket 3.6 20:26:13 10° SSW 20:31:28 85° WNW 20:36:48 10° NNE
Cosmos 1812 2.6 20:27:45 10° N 20:31:37 88° E 20:34:25 18° S
USA 234 3.6 20:26:32 16° SSE 20:31:50 56° SW 20:38:16 10° WNW
CARTOSAT-1 3.7 20:33:16 21° SE 20:36:04 59° ENE 20:40:20 10° N
Cosmos 1697 Rocket 3.0 20:30:37 10° NNW 20:36:10 57° ENE 20:39:58 20° SE
SAR-Lupe-2 4.1 20:34:23 10° NNE 20:37:46 38° E 20:39:16 25° SSE
Cosmos 1666 Rocket 3.9 20:35:55 20° SSE 20:38:35 46° E 20:42:44 10° NNE
Cosmos 1833 Rocket 3.1 20:35:49 13° S 20:40:25 40° ESE 20:45:38 10° NE
Cosmos 2228 Rocket 4.2 20:37:03 10° NNW 20:41:15 41° W 20:45:24 10° SSW
CZ-4B DEB 4.3 20:40:44 27° SSE 20:42:25 74° ENE 20:45:46 10° N
ATLAS 5 CENTAUR R/B 2.4 20:38:01 10° NW 20:43:40 84° SW 20:48:07 21° SE
IGS 5A 4.0 20:42:54 14° S 20:46:16 55° W 20:50:22 10° NNW
Cosmos 1441 Rocket 3.2 20:46:15 13° SSW 20:49:37 85° WNW 20:53:26 10° N
Resurs 01 Rocket 3.5 20:46:34 10° SSW 20:50:14 25° W 20:53:56 10° NW
Cosmos 1805 Rocket 3.9 20:46:45 10° SSW 20:51:08 68° W 20:55:35 10° N
Cosmos 1140 Rocket 4.0 20:48:34 22° SSE 20:51:18 38° ESE 20:56:08 10° NE
COSMOS 2406 3.2 20:46:18 10° SSW 20:52:01 69° ESE 20:57:44 10° NNE
Landsat 7 4.5 20:50:22 14° S 20:54:22 51° W 20:59:03 10° NNW
Cosmos 1900 4.2 20:51:25 10° SSW 20:56:20 77° ESE 21:01:23 10° NE
Lacrosse 5 3.4 20:56:38 10° WNW 21:01:15 34° N 21:05:52 10° ENE
Meteor 1-27 Rocket 4.0 20:56:17 10° NNW 21:02:09 75° W 21:06:27 19° S
Meteor 1-4 Rocket 2.4 20:59:26 10° N 21:02:58 73° ENE 21:04:03 41° SSE
Cosmos 1818 3.5 20:58:55 10° NW 21:04:25 88° NE 21:07:21 28° SE
Cosmos 1184 Rocket 3.4 21:06:52 37° E 21:06:58 38° E 21:10:04 10° NNE
Cosmos 1656 4.2 21:03:51 10° NW 21:09:08 51° WSW 21:12:31 22° S
SL-16 R/B 3.9 21:04:39 10° N 21:09:13 24° NE 21:13:18 12° E
Cosmos 2369 3.7 21:03:30 10° NNW 21:09:17 87° ENE 21:12:22 29° SSE
Cosmos 1934 Rocket 4.0 21:07:45 16° S 21:13:02 88° E 21:19:28 10° N
GP-B 3.4 21:11:59 10° N 21:16:23 64° W 21:19:12 22° SSW
Cosmos 1633 Rocket 3.0 21:13:53 25° S 21:16:27 87° W 21:20:55 10° N
SL-8 R/B 4.0 21:12:17 10° W 21:16:59 51° SSW 21:18:33 36° SSE
Meteor 1-20 Rocket 4.4 21:17:30 29° SSE 21:20:25 59° E 21:26:09 10° NNE
Cosmos 1437 Rocket 4.0 21:17:22 10° N 21:20:40 26° ENE 21:21:20 25° E
Cosmos 2278 3.7 21:14:58 10° NNW 21:20:43 75° ENE 21:23:28 32° SE
Cosmos 1707 Rocket 4.5 21:17:14 10° NNW 21:21:23 43° W 21:23:56 21° SSW
Cosmos 2082 Rocket 2.4 21:19:46 28° S 21:22:31 51° ESE 21:28:01 10° NE
ERBS 2.8 21:20:27 10° WSW 21:23:45 59° NNW 21:27:02 10° NE
CENTAUR R/B 3.9 21:28:14 18° ESE 21:28:14 18° ESE 21:32:18 10° ENE
SPOT 5 3.4 21:31:08 26° SSW 21:33:11 44° W 21:37:20 10° NNW
Meteor 1-18 Rocket 4.3 21:28:14 10° N 21:33:51 65° ENE 21:36:06 36° SE
Cosmos 1470 Rocket 3.5 21:32:29 40° S 21:34:04 81° E 21:38:30 10° NNE
Cosmos 1602 4.0 21:34:07 48° ESE 21:34:27 49° E 21:38:16 10° NNE
Cosmos 2123 Rocket 4.4 21:28:29 10° NNW 21:34:33 58° W 21:38:34 22° SSW
Cosmos 2322 Rocket 3.7 21:30:32 10° NNW 21:35:26 29° NE 21:38:57 16° E
Cosmos 1954 Rocket 4.1 21:34:46 36° SSE 21:36:42 58° ESE 21:41:56 10° NNE
USA 267 4.2 21:32:01 10° ENE 21:38:18 50° NNW 21:44:35 10° W
NOSS 3-2 (A) 3.9 21:38:03 33° SE 21:38:50 35° ESE 21:44:32 10° NE
ERS-1 Rocket 4.0 21:36:08 20° SSW 21:39:03 38° W 21:43:46 10° NNW
SWARM A 4.4 21:36:05 10° N 21:39:18 57° ENE 21:39:18 57° ENE
Okean 1-7 3.4 21:36:12 10° N 21:40:28 49° ENE 21:41:19 42° ESE
Terra 2.4 21:41:06 30° SSW 21:43:09 51° W 21:47:50 10° NNW
Aureole 1 Rocket 4.2 21:39:58 24° SSW 21:44:15 79° ESE 21:52:16 10° NNE
Cosmos 1190 Rocket 4.1 21:41:27 19° SSW 21:45:13 77° WNW 21:50:34 10° NNE
Cosmos 1862 Rocket 4.3 21:42:44 10° NNW 21:47:05 48° W 21:48:46 31° SSW
Cosmos 1238 Rocket 2.4 21:49:56 67° W 21:50:01 67° W 21:53:03 10° N
Cosmos 1605 Rocket 4.0 21:46:16 25° SSW 21:50:03 77° W 21:56:12 10° N
Cosmos 2360 Rocket 4.0 21:48:31 10° N 21:53:03 24° NE 21:57:04 12° E
Cosmos 407 Rocket 4.1 21:48:16 11° SW 21:53:19 56° WNW 21:58:33 10° NNE
Cosmos 405 Rocket 2.4 21:55:23 80° SE 21:55:30 82° ESE 21:59:13 10° NNE
MTI 3.9 21:53:31 10° N 21:56:20 67° NNW 21:56:20 67° NNW
Cosmos 1867 3.6 22:00:26 45° S 22:01:48 59° ESE 22:07:11 10° NE
Cosmos 1980 Rocket 2.3 21:56:24 10° NNW 22:02:02 64° WSW 22:03:53 41° S
Meteor 1-25 Rocket 4.3 21:59:25 29° SSW 22:02:20 70° WNW 22:07:56 10° N
ATLAS 5 CENTAUR R/B 2.6 22:02:17 10° NW 22:04:55 50° NE 22:07:09 28° ESE
Cosmos 2173 Rocket 4.1 22:04:18 40° SSE 22:06:19 58° E 22:12:20 10° NNE
deb Kosmos-1763 4.3 22:06:50 58° WSW 22:07:14 64° WNW 22:10:53 10° NNE
Geosat 4.4 22:08:21 40° SSW 22:09:38 50° WSW 22:14:33 10° NW
Cosmos 2242 Rocket 4.0 22:05:44 10° NNW 22:10:07 56° W 22:11:04 45° SW
Okean 3 4.1 22:07:21 10° N 22:11:26 43° ENE 22:11:49 42° E
Meteor 2-4 Rocket 3.7 22:06:21 10° N 22:12:09 74° ENE 22:13:49 47° SSE
Cosmos 921 Rocket 3.0 22:08:00 10° NNW 22:12:14 63° WSW 22:12:40 58° SW
Thor Agena Rocket 3.5 22:09:13 10° NNE 22:14:14 62° ESE 22:15:10 52° SSE
Cosmos 1500 3.6 22:15:08 49° ENE 22:15:08 49° ENE 22:18:20 10° NNE
Genesis I 3.1 22:11:16 10° NW 22:15:02 73° WSW 22:15:02 73° WSW
Cosmos 1933 Rocket 4.1 22:14:33 39° SW 22:15:51 54° WNW 22:20:13 10° N
Cosmos 1697 Rocket 4.1 22:15:10 10° NW 22:19:47 26° WSW 22:21:41 22° SW
ALOS 2 3.0 22:20:23 48° E 22:20:57 51° ENE 22:25:14 10° N
Cosmos 2016 Rocket 4.3 22:21:20 41° SE 22:23:07 54° E 22:29:17 10° NNE
Cosmos 1833 Rocket 3.9 22:19:07 10° WSW 22:24:22 40° NW 22:29:40 10° NNE
Cosmos 1869 Rocket 3.4 22:24:33 72° SE 22:24:53 77° E 22:29:20 10° NNE
Cosmos 1666 4.0 22:27:56 30° ENE 22:27:56 30° ENE 22:30:34 10° NNE
ATLAS 5 CENTAUR R/B 4.1 22:23:44 10° WNW 22:27:53 20° WSW 22:29:39 18° SW
Cosmos 1802 Rocket 4.1 22:26:44 44° SSE 22:28:47 69° E 22:35:09 10° NNE
Cosmos 1763 Rocket 3.4 22:24:02 10° NNW 22:29:22 86° WSW 22:30:31 57° SSE
Spot 4 3.9 22:30:23 57° SSW 22:31:11 69° WSW 22:36:00 10° NNW
USA 238 DEB 3.5 22:28:21 36° SSW 22:31:19 73° SE 22:38:13 10° NE
USA 238 3.5 22:28:30 36° SSW 22:31:25 72° SE 22:38:18 10° NE
Cosmos 1703 Rocket 4.2 22:29:41 10° NNW 22:33:50 43° W 22:34:26 40° WSW
Cosmos 2221 Rocket 3.7 22:29:29 10° N 22:33:55 61° ENE 22:34:15 58° E
Cosmos 1459 Rocket 3.9 22:32:04 44° S 22:34:14 89° E 22:40:36 10° N
Meteor 1-11 Rocket 4.0 22:35:20 45° SE 22:36:18 51° E 22:41:47 10° NNE
Cosmos 1850 Rocket 3.9 22:35:20 58° S 22:36:19 74° ESE 22:41:37 10° NNE
ATLAS 3B R/B 3.8 22:37:36 23° ESE 22:37:36 23° ESE 22:42:30 10° ENE
Iridium 4 Rocket 3.3 22:38:02 55° SW 22:38:44 64° W 22:43:05 10° N
Lacrosse 5 2.1 22:39:52 10° NW 22:44:56 65° NNE 22:46:56 36° E
Cosmos 1674 Rocket 4.3 22:44:14 10° N 22:48:18 40° ENE 22:48:35 39° E
BREEZE-M DEB (TANK) 3.8 22:45:01 10° W 22:49:15 89° S 23:06:41 10° ESE
SL-27 R/B 3.8 22:51:19 33° NE 22:51:19 33° NE 22:53:22 10° NNE
SL-16 R/B 2.1 22:48:17 10° NNW 22:53:59 80° WSW 22:55:08 58° S
Cosmos 1536 3.2 22:56:52 56° ENE 22:56:52 56° ENE 23:00:22 10° NNE
Cosmos 1437 Rocket 4.3 22:53:37 10° NW 22:56:44 26° W 22:56:44 26° W
Nimbus 7 Rocket 4.3 22:50:59 10° NNE 22:56:53 84° ESE 22:58:26 52° S
Cosmos 2208 Rocket 4.0 22:53:37 10° NNW 22:58:58 81° ENE 22:59:54 61° SE
Cosmos 2233 Rocket 4.3 22:58:12 44° SE 22:59:46 54° E 23:05:55 10° NNE
Cosmos 2237 4.5 22:54:28 10° NNW 23:00:10 63° ENE 23:01:59 42° ESE
Cosmos 1570 Rocket 3.9 22:58:11 10° NNW 23:03:30 80° WSW 23:04:18 64° S
Helios 1A 3.2 23:03:25 57° E 23:03:32 58° ENE 23:07:41 10° N
Cosmos 1816 Rocket 4.4 22:57:31 10° N 23:03:52 86° W 23:05:34 52° S
Tsikada Rocket 4.0 22:58:26 10° N 23:04:53 87° E 23:06:40 51° SSE
Cosmos 2082 Rocket 3.7 23:01:43 10° WSW 23:06:51 33° NW 23:11:59 10° NNE
Cosmos 1733 Rocket 3.0 23:07:07 69° E 23:07:07 69° E 23:11:23 10° NNE
Cosmos 1741 Rocket 4.2 23:06:13 47° SW 23:07:37 67° WNW 23:12:53 10° NNE
Cosmos 1242 Rocket 3.3 23:05:00 10° N 23:07:54 49° NNE 23:07:54 49° NNE
Meteor 1-13 Rocket 4.3 23:05:52 10° NNW 23:11:21 61° W 23:12:22 51° SW
Cosmos 2219 Rocket 3.6 23:10:24 10° NNW 23:15:32 33° NE 23:19:22 16° ESE
SL-24 DEB 4.4 23:11:33 10° NNE 23:16:19 60° E 23:16:39 59° ESE
Cosmos 841 Rocket 3.5 23:11:29 10° NNW 23:16:40 65° WSW 23:17:11 61° SW
CENTAUR R/B 2.4 23:15:22 46° SSW 23:17:26 84° SE 23:24:38 10° NE
Cosmos 44 3.3 23:13:35 10° NW 23:18:28 79° NE 23:19:18 61° ESE
Cosmos 2322 Rocket 2.2 23:14:18 10° NNW 23:19:55 63° WSW 23:20:44 56° SSW
COSMOS 2428 4.1 23:15:22 10° NNW 23:20:32 33° NE 23:24:38 15° ESE
Cosmos 1814 Rocket 3.9 23:15:24 10° NNW 23:20:35 73° WSW 23:21:08 66° SSW
USA 267 4.3 23:14:30 10° ENE 23:20:39 45° N 23:26:48 10° WNW
Cosmos 1378 3.7 23:19:06 10° N 23:22:19 54° NE 23:22:19 54° NE
YAOGAN 11 4.1 23:25:18 76° SE 23:25:36 81° ENE 23:30:13 10° NNW
PSLV R/B 4.3 23:23:55 10° NNE 23:28:19 44° E 23:28:24 44° ESE
Cosmos 1908 Rocket 4.1 23:29:17 46° E 23:29:17 46° E 23:33:27 10° NNE
NOSS 3-2 (A) 4.0 23:25:22 21° WSW 23:29:20 57° NW 23:36:01 10° NE
Resurs 1-4 Rocket 4.4 23:28:31 10° ENE 23:30:31 12° E 23:32:13 11° ESE
NOSS 3-2 (C) 3.5 23:29:17 39° SW 23:31:40 77° NW 23:38:23 10° NE
COSMOS 2487 4.1 23:34:49 27° ENE 23:34:49 27° ENE 23:36:47 10° NE
Meteor 1-23 Rocket 4.3 23:30:54 10° NNW 23:36:43 68° W 23:37:51 55° SSW
Cosmos 540 Rocket 3.9 23:32:19 10° NNW 23:37:14 45° WSW 23:37:26 45° WSW
Cosmos 2360 Rocket 2.1 23:32:02 10° NNW 23:37:44 81° WSW 23:38:47 60° S
Cosmos 2333 Rocket 2.9 23:35:31 10° NNW 23:41:10 52° NE 23:44:02 28° ESE
Cosmos 1980 Rocket 4.5 23:44:42 10° W 23:44:52 10° W 23:45:01 10° W
Cosmos 1271 Rocket 3.0 23:43:13 10° N 23:46:24 62° N 23:46:24 62° N
Cosmos 1743 2.9 23:47:59 68° NNE 23:47:59 68° NNE 23:51:27 10° N
Cosmos 1378 Rocket 3.6 23:43:05 10° NNW 23:47:29 67° W 23:47:29 67° W
Cosmos 1975 Rocket 3.6 23:49:49 10° N 23:54:13 52° ENE 23:54:48 48° ESE
Okean 2 3.5 23:50:41 10° N 23:54:43 66° ENE 23:54:43 66° ENE
